Location: Lanoux
(43.1180°N, 1.4255°E)
Time: 13:01:28
(UTC+00:00)

Meteor 2-10 - Pass Details

Date: 20 March 2026
Orbit: 736 x 866 km, 81.2° (Epoch: 18 April)

Event Time Altitude Azimuth Distance (km) Brightness Sun altitude
Rises 05:05:54 0° 350° (N) 3,179 7.2 -10.3°
Reaches altitude 10° 05:08:13 10° 351° (N) 2,256 6.5 -9.9°
Maximum altitude 05:13:17 83° 79° (E) 759 4.1 -8.9°
Drops below altitude 10° 05:18:25 10° 168° (SSE) 2,287 6.5 -8.0°
Sets 05:20:47 0° 169° (S) 3,226 7.3 -7.6°
